[Iaude] MPEC D43: 2024 DE [a=1.08,e=0.17,i=8.0,H=27.7]

mpec at cfa.harvard.edu mpec at cfa.harvard.edu
Sat Feb 17 14:25:21 EST 2024


M.P.E.C. 2024-D43                             Issued 2024 February 17, 19:23 UT

     The Minor Planet Electronic Circulars contain information on unusual
         minor planets, routine data on comets and natural satellites,
         and occasional editorial announcements.  They are published
    on behalf of Division F of the International Astronomical Union by the
          Minor Planet Center, Smithsonian Astrophysical Observatory,
                          Cambridge, MA 02138, U.S.A.
			  
             Prepared using the Tamkin Foundation Computer Network

                              MPC at CFA.HARVARD.EDU
            URL https://www.minorplanetcenter.net/    ISSN 1523-6714

                                    2024 DE                                     


Observations:
     K24D00E*1C2024 02 17.16142608 16 19.175+44 38 20.18         19.86GVED043G96
     K24D00E 1C2024 02 17.16706208 16 22.490+44 33 40.64         19.08GVED043G96
     K24D00E 1C2024 02 17.17271308 16 25.716+44 29 02.62         19.89GVED043G96
     K24D00E 1C2024 02 17.17835608 16 28.956+44 24 22.68         20.08GVED043G96
     K24D00E KC2024 02 17.21941508 16 51.784+43 50 05.21         19.87GVED043I52
     K24D00E  C2024 02 17.22055608 16 49.208+43 48 53.99         19.5 GVED043H01
     K24D00E KC2024 02 17.22064808 16 52.460+43 49 03.50         19.69GVED043I52
     K24D00E KC2024 02 17.22189108 16 53.105+43 48 00.72         19.55GVED043I52
     K24D00E KC2024 02 17.22313308 16 53.771+43 46 58.62         19.53GVED043I52
     K24D00E  C2024 02 17.22558208 16 51.930+43 44 40.80         19.4 GVED043H01
     K24D00E  C2024 02 17.23525708 16 57.100+43 36 33.75         19.4 GVED043H01
     K24D00E KC2024 02 17.23727008 16 43.29 +43 33 31.8          19.8 GVED043H21
     K24D00E KC2024 02 17.23919908 16 44.42 +43 31 52.7          19.9 GVED043H21
     K24D00E KC2024 02 17.24112708 16 45.53 +43 30 14.4          19.9 GVED043H21
     K24D00E  C2024 02 17.24181808 17 00.603+43 31 02.72         19.0 GVED043H01
     K24D00E KC2024 02 17.24491508 16 47.73 +43 27 00.0          19.9 GVED043H21
     K24D00E KC2024 02 17.24684208 16 48.85 +43 25 21.5          19.6 GVED043H21
     K24D00E KC2024 02 17.42933508 18 47.858+40 52 51.56         19.70GVED043I52
     K24D00E KC2024 02 17.43106808 18 48.967+40 51 23.65         19.77GVED043I52
     K24D00E KC2024 02 17.43456008 18 51.221+40 48 26.28         19.49GVED043I52
     K24D00E KB2024 02 17.73176 08 23 24.96 +36 52 55.0                XED043M45
     K24D00E KB2024 02 17.73306 08 23 25.57 +36 51 57.2          19.5 GXED043M45
     K24D00E KB2024 02 17.73431 08 23 26.14 +36 51 00.7                XED043M45

Observer details:
G96 Mt. Lemmon Survey.  Observers T. Beuden, J. K. Hogan.  Measurers T.
    Beuden, V. F. Carvajal, D. Fay, J. B. Fazekas, D. C. Fuls, A. R. Gibbs, A.
    D. Grauer, H. Groeller, J. K. Hogan, R. A. Kowalski, S. M. Larson, G. J.
    Leonard, D. Rankin, R. L. Seaman, F. C. Shelly, K. W. Wierzchos.  1.5-m
    reflector + 10K CCD.
H01 Magdalena Ridge Observatory, Socorro.  Observers W. H. Ryan, E. V. Ryan.
    Measurer W. H. Ryan.  2.4-m f/8.9 Ritchey-Chretien + CCD.
H21 Astronomical Research Observatory, Westfield.  Observer R. Holmes.
    Measurers T. Linder, R. Holmes, L. Horn.  0.76-m f/3.0 astrograph + CCD.
I52 Steward Observatory, Mt. Lemmon Station.  Observer J. B. Fazekas.
    Measurers E. C. Beshore, D. Fay, J. B. Fazekas, D. C. Fuls, A. R. Gibbs,
    A. D. Grauer, H. Groeller, J. K. Hogan, R. A. Kowalski, S. M. Larson, G.
    J. Leonard, D. Rankin, R. L. Seaman, F. C. Shelly, K. W. Wierzchos.  1.0-m
    prime focus + CCD.
M45 Starhopper Observatory, Sfantu Gheorghe.  Observer F. Ursache.  0.41-m
    f/7.5 reflector + CMO.

Orbital elements:
2024 DE                                                  Earth MOID = 0.0118 AU
Epoch 2024 Mar. 31.0 TT = JDT 2460400.5                 Veres                   
M  92.55229              (2000.0)            P               Q                  
n   0.87843733     Peri.  105.11359     +0.26003098     -0.96304694             
a   1.0797640      Node   329.53478     +0.82424664     +0.25923533             
e   0.1684077      Incl.    7.95570     +0.50299241     +0.07305912             
P   1.12           H   27.71          G   0.15           U   7                  
Residuals in seconds of arc
240217 G96  0.3+  0.8-    240217 I52  0.3-  0.3+    240217 H21  0.3+  0.6-
240217 G96  0.0   0.1+    240217 H01  0.0   0.0     240217 I52  0.1+  0.2-
240217 G96 (0.8-  3.5+)   240217 H01  0.2-  0.2+    240217 I52  0.1+  0.2-
240217 G96 (1.1-  4.8+)   240217 H21  0.1-  0.4+    240217 I52  0.2+  0.4-
240217 I52  0.2-  0.4+    240217 H21  0.1+  0.1-    240217 M45  0.1+  0.5+
240217 H01  0.2-  0.2+    240217 H21  0.1+  0.1+    240217 M45  0.0   1.1+
240217 I52  0.0   0.5+    240217 H01  0.1-  0.1+    240217 M45  0.4-  0.6+
240217 I52  0.3-  0.1+    240217 H21  0.2+  0.6-

Ephemeris:
2024 DE                  a,e,i = 1.08, 0.17, 8                   q = 0.8979
Date    TT    R. A. (2000) Decl.     Delta      r    Elong.  Phase     V
2024 01 18    21 03 57.0 +31 15 11   0.1036  0.9274    54.5   120.3    27.5
...
2024 02 02    21 11 15.6 +41 24 06   0.05146 0.9596    58.6   118.8    25.9
...
2024 02 10    21 32 50.0 +58 17 15   0.02522 0.9796    73.0   105.6    23.6
...
2024 02 16    07 49 07.4 +61 52 24   0.01315 0.9955   125.9    53.5    20.3
2024 02 17    08 13 23.4 +46 55 49   0.01358 0.9982   139.0    40.5    20.0
2024 02 18    08 25 35.5 +33 36 32   0.01490 1.0010   149.1    30.5    19.9
...
2024 02 24    08 48 12.1 -03 18 18   0.03158 1.0175   152.4    26.8    21.5
...
2024 03 03    08 56 57.6 -14 32 15   0.05969 1.0400   143.6    34.4    23.1
...
2024 03 18    09 09 55.2 -18 56 41   0.1171  1.0822   135.7    39.9    24.8

M. P. C. Staff               (C) Copyright 2024 MPC           M.P.E.C. 2024-D43





More information about the Iaude mailing list